SCP
1 1 1 1 1 1 1 1 1 2 3 3 2 2 2 2 3 4 5 5 5 5 4 3 3 3 4 4 5 8 10 8 4 3 3 3 4 5 5 5 4 3 2 3
1 1 1 1 1 1 1 1 1 2 3 3 2 2 2 2 3 3 4 5 6 5 5 4 4 4 4 5 7 9 8 6 3 3 3 4 5 5 6 5 4 3 3 3
1 1 1 1 1 1 1 1 1 2 3 3 3 2 2 2 2 2 3 4 5 5 6 6 5 5 5 6 8 8 7 5 4 3 3 5 6 7 6 5 4 3 3 3
1 1 1 1 1 1 1 1 2 2 3 3 3 3 2 2 2 2 2 3 3 4 5 5 6 6 6 6 7 7 8 8 7 6 6 6 7 7 6 5 4 3 3 2
1 1 1 1 1 1 1 1 2 2 3 3 3 3 3 3 3 3 3 4 4 4 4 4 6 8 8 7 6 7 9 13 14 13 10 8 7 7 6 4 3 3 2 2
1 1 1 1 1 1 1 1 2 2 3 3 4 3 4 4 3 4 4 4 4 4 5 5 7 9 10 8 6 6 9 14 17 15 11 8 7 5 4 4 3 3 2 2
1 1 1 1 1 1 2 2 2 3 3 4 4 4 5 5 4 4 5 5 4 5 6 7 8 10 11 10 8 7 9 11 12 11 8 6 5 4 4 4 4 3 3 3
1 1 1 2 2 2 2 3 3 4 4 4 4 5 6 6 5 4 4 4 4 5 7 8 9 10 10 10 9 9 8 7 7 6 5 5 4 5 5 5 4 3 3 3
2 2 2 2 2 3 3 4 5 5 4 4 4 5 6 7 6 4 4 5 5 6 8 9 11 13 12 11 10 9 7 6 6 6 5 5 5 5 5 5 4 4 3 3
2 2 2 2 2 3 4 5 6 6 5 5 5 5 6 7 6 5 4 5 5 7 8 10 12 15 14 11 9 8 7 6 6 5 5 5 5 6 5 5 5 4 4 4
2 2 2 2 3 4 5 6 6 7 7 7 7 6 6 6 5 4 4 4 5 6 7 8 10 11 11 9 7 7 6 6 5 5 5 5 6 6 5 5 4 4 4 4
2 2 2 3 3 4 5 5 6 6 7 7 7 6 6 6 5 4 4 4 5 6 6 7 6 6 7 7 7 5 5 5 5 5 5 5 6 6 5 4 3 3 3 3
3 3 3 4 4 4 4 4 5 6 5 5 6 5 5 4 5 5 5 5 5 5 6 6 6 6 7 8 6 5 5 5 6 5 5 5 6 6 5 3 2 2 1 1
3 4 4 5 5 5 5 4 5 5 5 4 4 4 4 4 5 6 6 5 5 5 5 6 6 6 7 8 7 5 4 5 5 5 5 5 6 6 6 4 3 2 1 1
3 4 4 5 5 5 5 4 4 4 4 4 4 3 3 3 4 5 5 5 5 4 5 6 7 7 7 8 7 6 4 5 5 5 6 6 6 5 6 5 4 3 2 2
3 3 4 5 5 4 4 3 3 3 4 4 3 3 3 3 3 4 4 4 4 4 5 6 7 6 6 8 8 6 5 4 5 6 6 5 4 4 4 5 5 4 3 2
2 3 4 5 5 4 3 3 3 3 3 3 3 3 3 3 3 4 4 4 4 5 6 7 7 6 5 6 7 7 5 4 4 5 5 4 3 2 3 4 4 3 2 2
2 3 4 5 5 4 4 3 3 4 4 4 4 4 4 4 4 4 5 4 5 6 6 6 5 5 5 5 5 5 5 4 4 4 4 3 2 2 2 3 3 2 2 2
3 4 5 5 5 5 4 4 4 4 4 4 4 4 4 4 4 4 5 4 4 5 5 4 3 3 4 3 3 4 4 3 3 3 3 2 2 2 2 2 2 2 2 2
5 6 6 6 5 5 5 5 5 5 5 5 5 5 4 4 4 4 4 4 4 4 4 3 3 2 2 2 2 2 2 2 2 2 2 2 2 2 2 2 2 2 2 2
6 6 6 5 5 5 5 6 6 6 6 5 5 5 5 4 4 4 4 4 4 3 3 3 3 2 1 1 1 1 1 2 2 2 2 2 2 2 1 1 1 2 2 2
6 6 5 5 5 5 6 6 7 7 7 6 5 5 5 4 3 4 4 4 3 3 3 3 2 2 1 1 1 1 1 1 2 2 2 2 1 1 1 1 1 2 2 2
6 6 6 6 6 6 6 7 7 7 6 6 6 5 5 4 4 4 4 4 3 2 2 2 1 1 0 1 1 1 1 1 1 1 1 1 1 1 1 1 1 1 2 2
5 6 6 7 6 6 7 7 7 7 7 7 7 7 6 6 5 5 4 3 2 2 2 1 0 0 0 1 1 1 1 1 1 1 1 1 1 1 1 1 1 1 1 2
4 5 6 7 6 6 6 7 8 9 9 9 9 8 8 8 7 6 4 3 2 1 1 1 0 0 0 1 1 1 1 1 1 1 1 1 1 1 1 1 1 1 1 1
3 3 5 6 6 6 5 6 8 9 9 9 9 9 9 9 7 6 4 3 2 1 1 1 1 0 0 1 1 1 1 1 1 1 1 1 1 1 1 1 1 1 1 1
3 3 4 7 7 6 6 6 6 7 7 8 9 9 9 8 7 5 4 4 3 2 1 1 1 1 0 1 1 1 1 1 1 1 1 1 1 1 1 1 1 1 1 1
Wind_Speed
7 4 7 9 10 11 12 11 11 8 7 4 4 4 4 5 6 6 6 6 6 6 7 7 7 7 7 6 6 6 6 6 5 4 4 3 3 3 2 2 2 2 1 1
9 8 8 8 9 11 11 10 10 7 4 2 3 4 5 5 5 5 4 5 5 6 6 6 6 7 7 7 7 6 6 5 4 4 4 4 3 3 2 2 1 2 2 1
10 10 10 12 10 11 10 9 10 9 5 5 5 5 5 5 4 4 3 3 4 5 5 5 5 6 6 6 6 6 6 5 5 5 4 4 4 4 3 3 2 2 2 2
8 9 15 6 4 6 7 7 6 4 4 5 4 4 4 4 4 3 3 3 3 3 4 4 5 5 5 6 7 6 6 6 6 6 5 5 5 4 4 3 3 2 2 2
9 12 10 7 7 7 8 7 5 5 5 4 4 5 6 4 2 2 3 3 3 3 3 4 4 5 6 6 7 7 6 6 6 6 5 5 5 4 4 3 3 3 3 3
9 12 11 5 4 3 6 8 5 5 6 5 6 6 5 4 2 2 2 2 2 2 3 3 4 4 5 6 6 6 6 6 6 6 5 5 5 4 3 3 4 3 3 3
10 10 5 3 2 6 9 1 4 4 4 5 3 1 3 2 2 2 2 2 2 2 2 3 3 4 4 4 4 4 5 5 5 5 5 5 5 5 5 5 4 4 4 4
8 10 5 4 3 3 3 3 2 3 3 2 2 3 3 2 2 2 2 2 2 2 1 2 3 4 4 4 3 3 4 5 5 5 5 5 5 5 5 5 6 5 5 4
3 1 5 3 1 2 1 0 1 2 2 2 2 3 2 2 2 2 2 2 2 2 2 2 2 3 3 3 3 3 4 5 5 5 5 5 6 6 6 5 5 5 5 5
2 2 2 1 1 1 1 1 1 1 2 2 2 2 2 2 2 2 1 2 2 2 2 2 2 2 3 2 3 3 4 4 4 5 5 5 5 5 5 5 5 5 4 4
4 2 2 1 0 1 1 1 1 1 0 1 1 2 2 2 1 1 2 2 3 3 3 3 2 3 2 2 4 5 5 5 5 5 4 4 4 3 4 3 3 4 4 4
3 2 3 2 1 1 1 1 1 1 1 1 1 1 1 1 1 2 3 2 3 3 3 3 3 3 3 3 4 5 5 5 5 4 4 4 4 3 0 2 1 3 4 5
3 3 3 3 2 2 2 2 2 2 2 2 1 2 2 2 2 2 2 3 3 3 3 3 3 3 3 3 4 5 5 5 4 4 4 4 4 4 3 3 3 3 4 4
2 3 3 3 3 3 3 3 3 3 2 2 2 2 2 2 2 2 2 2 3 3 3 3 3 3 3 3 4 5 5 4 4 4 4 4 4 4 4 4 4 3 4 5
3 4 3 3 3 3 3 3 3 3 2 2 2 3 3 3 3 2 2 2 2 2 2 3 3 3 3 3 4 5 5 4 4 4 4 4 4 4 4 4 3 3 3 3
2 2 3 3 3 3 3 3 4 3 3 4 4 3 3 3 3 3 2 2 3 3 3 3 3 2 3 3 4 4 4 3 3 4 4 4 4 4 4 3 4 3 3 2
3 3 3 3 4 4 4 4 4 4 4 4 4 4 4 3 3 3 3 3 3 3 3 3 3 2 3 4 3 3 3 3 5 4 4 4 4 4 4 3 3 3 3 2
4 4 4 4 4 4 4 4 5 5 4 4 4 4 4 4 4 3 3 3 3 3 3 3 3 3 3 3 3 2 2 3 4 4 3 3 4 4 4 4 4 5 4 3
3 3 3 4 4 4 4 5 4 4 4 5 5 5 5 5 4 4 3 3 3 4 3 2 2 4 3 2 2 3 3 3 3 3 3 3 4 4 4 4 4 4 4 3
2 3 3 4 4 4 4 4 4 5 5 5 6 5 5 4 4 3 3 3 2 1 1 1 3 2 2 2 3 3 3 3 3 3 3 4 4 4 4 5 5 5 5 4
1 2 2 3 3 3 3 3 4 5 5 5 5 4 4 3 3 3 4 3 1 0 1 2 2 1 1 1 3 3 2 3 3 3 3 3 4 4 4 4 4 4 4 4
1 1 2 2 2 2 2 3 3 3 4 4 3 3 3 2 3 3 2 1 0 1 1 1 0 2 1 2 2 2 1 2 2 2 3 3 3 4 4 4 4 4 4 4
2 1 2 2 2 3 3 3 2 2 3 3 3 3 2 2 2 2 1 1 0 1 1 1 2 2 1 3 2 1 1 2 2 2 3 3 3 4 4 4 4 3 4 4
2 2 2 2 2 2 2 3 3 2 1 1 1 1 1 2 1 1 1 3 2 1 0 3 3 2 4 2 1 1 1 2 2 2 3 3 3 3 3 4 3 3 3 4
2 2 2 2 2 2 2 2 2 1 1 1 2 2 1 1 1 2 2 3 3 1 1 3 4 3 3 2 1 1 1 1 2 3 2 3 3 3 3 3 3 3 4 3
2 2 3 3 3 2 2 2 1 1 1 1 2 2 2 2 2 2 2 2 3 1 0 1 1 2 2 1 1 1 2 2 2 3 3 3 3 3 3 3 5 4 3 3
1 1 1 1 2 2 2 2 2 2 2 2 2 2 2 2 2 2 2 1 1 0 0 1 1 1 1 1 1 2 2 2 3 3 3 3 3 3 3 4 4 3 4 4
Wind_Direction
245 230 213 214 213 213 228 247 255 245 231 186 180 168 147 143 142 145 153 163 168 169 166 170 171 170 176 179 177 175 175 177 174 169 169 177 176 167 163 165 155 145 157 167
221 220 214 218 218 217 227 236 243 238 225 156 148 139 137 141 143 148 159 168 172 178 175 176 180 181 177 176 172 175 178 176 169 170 170 173 172 168 166 165 170 157 167 168
219 213 221 223 222 223 224 232 240 239 217 164 162 159 154 153 150 147 158 166 178 187 185 184 186 187 181 174 169 173 176 175 172 173 175 179 179 175 178 183 179 178 187 182
223 211 232 220 208 225 227 234 240 242 198 187 171 157 154 156 154 155 158 168 183 190 184 188 189 182 181 175 173 175 178 179 179 181 181 179 181 183 188 188 187 198 198 185
226 225 223 205 205 217 225 224 225 214 191 175 161 163 152 135 137 159 166 172 184 197 188 185 182 177 183 187 181 182 184 184 184 186 183 183 187 191 192 189 191 201 195 194
227 237 232 201 159 217 231 218 195 195 184 175 184 209 144 126 150 152 138 145 164 183 176 175 174 182 190 196 194 193 189 186 184 185 185 188 189 193 191 198 199 204 192 203
226 233 226 84 141 201 226 211 138 175 179 190 205 345 98 141 146 146 147 146 154 165 171 173 175 185 195 198 206 200 189 186 185 182 185 194 194 198 195 198 201 205 199 205
229 233 207 85 170 225 23 47 143 165 172 174 129 120 136 140 143 150 150 153 159 156 158 165 178 190 197 196 200 197 194 192 195 192 195 189 193 202 206 203 200 201 203 209
270 338 67 86 85 46 14 99 162 163 145 151 161 164 151 158 166 170 165 160 172 174 173 168 185 199 208 197 188 195 202 204 201 194 198 197 199 205 202 202 211 208 208 211
224 161 128 110 80 51 44 74 106 142 153 173 192 189 185 179 176 176 184 188 192 196 193 193 201 215 218 200 186 192 203 208 201 200 201 201 210 213 215 205 213 216 219 222
225 209 214 183 57 38 43 62 68 75 136 207 208 208 206 194 183 201 208 215 216 217 217 217 216 226 221 220 210 203 206 214 211 210 201 203 216 232 234 230 244 244 238 237
243 206 241 228 267 317 310 305 314 310 293 290 281 259 246 225 210 225 224 216 221 225 228 229 229 234 226 219 225 212 212 213 215 211 198 206 203 207 284 266 194 235 268 277
279 278 282 262 260 279 292 290 284 282 277 277 288 278 262 253 241 239 230 222 223 227 231 233 236 237 235 221 224 228 224 217 219 217 209 213 213 212 210 210 204 228 244 256
252 248 239 250 270 280 290 292 291 290 282 280 286 272 264 259 253 244 244 246 241 238 238 241 245 248 244 227 221 226 229 215 218 215 219 219 219 220 219 218 213 209 207 215
255 255 246 255 260 264 269 264 266 264 270 275 268 262 256 252 250 247 250 241 235 236 239 242 245 250 246 225 216 220 226 219 218 223 220 217 220 227 228 222 226 225 210 183
271 248 242 249 255 261 261 257 262 265 269 268 267 263 259 253 249 246 241 229 226 233 237 239 241 245 237 225 213 214 218 203 221 231 223 215 222 230 232 228 229 226 227 218
249 250 256 261 261 263 265 267 271 271 270 269 271 271 262 254 248 241 242 243 237 234 234 235 233 228 228 225 220 218 211 191 200 223 229 226 231 237 234 233 237 239 239 222
255 259 265 269 272 274 274 275 271 268 270 276 271 260 254 250 251 246 236 229 225 230 236 237 236 229 220 218 226 229 218 218 216 216 222 228 233 235 235 233 234 238 239 206
239 246 254 264 272 273 271 270 271 273 271 267 259 255 255 250 245 235 224 219 222 231 236 232 223 225 212 201 234 223 224 217 212 212 218 213 228 233 233 237 240 240 242 230
236 244 250 258 266 271 268 264 264 265 263 261 256 252 251 245 231 215 218 232 242 270 251 226 229 233 225 207 248 236 230 230 227 223 223 228 232 234 237 241 241 243 246 243
258 263 260 264 276 282 279 273 269 266 265 260 256 255 252 240 217 209 223 225 190 315 238 185 223 242 253 255 245 241 232 233 234 234 235 238 242 244 247 251 254 252 251 248
344 336 322 312 312 310 301 286 279 274 264 257 257 260 250 226 212 210 216 263 117 115 223 182 188 63 36 259 243 241 232 240 248 248 249 250 248 248 249 250 253 255 254 251
12 3 346 337 329 318 315 306 293 280 270 259 248 238 225 218 218 214 187 136 137 126 241 74 75 99 254 248 263 261 246 250 254 251 251 251 248 247 245 243 241 240 244 240
6 11 8 355 327 315 323 326 323 310 295 268 216 187 196 181 171 160 93 113 115 174 153 97 127 174 244 246 260 262 257 255 255 259 261 258 258 251 248 248 241 234 233 234
353 358 4 348 335 342 347 337 327 323 337 53 77 93 98 98 114 104 105 113 124 162 133 132 162 212 243 260 249 250 253 271 289 290 284 280 277 271 261 256 255 252 249 247
5 11 19 4 360 349 341 343 340 1 35 57 59 70 76 85 99 108 118 122 120 134 192 157 170 217 253 273 269 268 269 246 247 255 271 278 275 267 259 260 259 258 257 255
30 37 17 11 15 5 356 360 12 20 31 52 66 65 67 73 84 97 109 111 104 112 225 242 243 249 270 291 300 292 285 280 276 274 270 263 264 264 261 259 263 265 265 261